Main page
METAR-TAF:

METAR-TAF

Airports :

Tongareva Airport

Penrhyn, Cook Islands

latitude: 9-00-52S, longitude: 158-01-57W, elevation: 2 m

Current weather observation

The report was made 30 minutes ago, at 09:00 UTC
Wind 15 kt from the Northeast
Temperature 28°C
Humidity 79%
Pressure 1010 hPa

METAR: NCPY 110900Z AUTO 04015KT //// ////// 28/24 Q1010

Time: 23:30 (09:30 UTC)


TAF: missing

Weather observations and forecasts of more than 4000 airports (METAR and TAF reports).

The available stations are represented by yellow and red dots on the map.

Hover mouse over dot to see the name of the station.

Then click to see weather observations and forecasts.

To change the map : click on the green buttons with a black cross to zoom in, on the green button with a dash to zoom out, or on the green arrows for adjacent maps.


METAR-TAF: